Aérodrome :
LOGIN :

S'inscrire | Disclaimer

   EN    FR    IT 

 










Légende :    VFR   VFR Marginal   IFR   IFR Intensif   IFR Très Intensif
Visi : 
Plafond : 
>= 8 km
>= 3000ft
5 à 8 km
1000 à 3000 ft
1500m à 5 km
500 à 1000 ft
800 à 1500m
200 à 500 ft
< 800m
< 200 ft
Symboles :   Orages  Brouillard  Fortes neiges  Fortes précipitations  Vent > 20 kt
SIGMETs :   Divers  Orages  Givrage  Turbulence  Onde Orograph.  Cendres Volcan.







- Altitude de l'aérodrome : 885 ft
- Code IATA : BAS
- Voir les cartes d'approche


LFSB - Bale-Mulhouse

DERNIER METAR :
  • 191400Z VRB02KT 9999 FEW060TCU FEW060 29/15 Q1020 NOSIG

METARs EXPIRÉS :
  • 191330Z 08005KT 010V130 9999 FEW056CB FEW056 29/16 Q1020 NOSIG
  • 191300Z VRB03KT 9999 FEW053 FEW056CB 29/15 Q1020 NOSIG
  • 191230Z VRB04KT 9999 FEW053 FEW056CB 28/16 Q1020 NOSIG
  • 191200Z 11005KT 070V170 9999 FEW053TCU FEW053 27/16 Q1021 NOSIG
  • 191130Z VRB03KT 9999 FEW053TCU FEW053 27/16 Q1021 NOSIG

TAF TAF LFSB
Valide du 19 à 12h jusqu'au 20 à 12h UTC


191100Z 1912/2012 17003KT CAVOK
TEMPO 1912/1918 33007KT FEW060CB
Météo : +33 3 89 90 31 11
Pas de NOTAMs connus pour ce terrain.



MET'MAP, la Météo Aéronautique d'un coup d'oeil ! - Copyright ORBIFLY Décembre 2007 - Disclaimer

ORBIFLY MET'MAP TEAM :

Programmation & Développement : Alexandra Zaïnal
Conception & Développement : Baudouin d'Aumeries
Co-Programmation & Développement : Marc-Olivier Méhu
Soutien technique & logistique : Manuel Goepfert

Contact : metmap@orbifly.com




SOURCES & CREDITS :

   NOAA